Location: D�rnast
(49.6426°N, 11.9755°E)
Time: 13:21:53
(UTC+00:00)

Cosmos 158 Rocket - Pass Details

Date: 24 January 2021
Orbit: 698 x 794 km, 74.0° (Epoch: 26 February)

Event Time Altitude Azimuth Distance (km) Brightness Sun altitude
Rises 17:01:02 0° 336° (NNW) 3,268 7.4 -10.7°
Reaches altitude 10° 17:03:25 10° 337° (NNW) 2,347 6.6 -11.1°
Maximum altitude 17:08:47 86° 66° (ENE) 799 4.0 -11.9°
Drops below altitude 10° 17:14:12 10° 157° (SSE) 2,358 6.4 -12.8°
Sets 17:16:35 0° 157° (SSE) 3,283 7.2 -13.2°
